This demonstration page uses our WeatherBlox Daily Observations layout. Learn more.

40.92501, -98.34201

Hourly Observations for October 29, 2020

Temp ( °F °C ) Dew Point ( °F °C ) Humidity (%) Winds ( mph kmh ) Pressure ( in mb ) Visibility ( mi km ) Precip ( " mm )
12:53 am 00:53 Clear 41 5 34 1.1 76 76 N 16 26 30.14 1021 10 16.0934 0 0
1:53 am 01:53 Clear 39 3.9 33 0.6 79 79 N 15 24 30.12 1020 10 16.0934 0 0
2:53 am 02:53 Clear 38 3.3 32 0 79 79 N 15 24 30.14 1021 10 16.0934 0 0
3:53 am 03:53 Clear 36 2.2 31 -0.6 82 82 N 9 15 30.15 1021 10 16.0934 0 0
4:53 am 04:53 Clear 32 0 27 -2.8 82 82 NNW 7 11 30.17 1022 10 16.0934 0 0
5:53 am 05:53 Clear 33 0.6 28 -2.2 82 82 NNW 10 17 30.19 1022 10 16.0934 0 0
6:53 am 06:53 Clear 30 -1.1 26 -3.3 85 85 NNW 9 15 30.2 1023 10 16.0934 0 0
7:53 am 07:53 Clear 31 -0.6 26 -3.3 82 82 N 12 19 30.22 1023 10 16.0934 0 0
8:53 am 08:53 Sunny 32 0 27 -2.8 82 82 NNW 8 13 30.23 1024 10 16.0934 0 0
9:53 am 09:53 Sunny 36 2.2 28 -2.2 73 73 N 8 13 30.24 1024 10 16.0934 0 0
10:53 am 10:53 Sunny 39 3.9 27 -2.8 62 62 N 8 13 30.25 1024 10 16.0934 0 0
11:53 am 11:53 Sunny 43 6.1 27 -2.8 53 53 VRB 6 9 30.25 1024 10 16.0934 0 0
12:53 pm 12:53 Sunny 45 7.2 26 -3.3 48 48 N 9 15 30.24 1024 10 16.0934 0 0
1:53 pm 13:53 Sunny 47 8.3 27 -2.8 46 46 N 7 11 30.19 1023 10 16.0934 0 0
2:53 pm 14:53 Sunny 48 8.9 27 -2.8 44 44 Calm 30.17 1022 10 16.0934 0 0
3:53 pm 15:53 Sunny 51 10.6 27 -2.8 39 39 Calm 30.16 1021 10 16.0934 0 0
4:53 pm 16:53 Sunny 51 10.6 28 -2.2 41 41 VRB 6 9 30.15 1021 10 16.0934 0 0
5:53 pm 17:53 Sunny 49 9.4 28 -2.2 44 44 S 8 13 30.15 1021 10 16.0934 0 0
6:53 pm 18:53 Clear 44 6.7 29 -1.7 55 55 SSE 8 13 30.15 1021 10 16.0934 0 0
7:53 pm 19:53 Clear 44 6.7 29 -1.7 55 55 S 10 17 30.14 1021 10 16.0934 0 0
8:53 pm 20:53 Clear 41 5 28 -2.2 60 60 S 8 13 30.15 1021 10 16.0934 0 0
9:53 pm 21:53 Clear 40 4.4 28 -2.2 63 63 S 9 15 30.14 1021 10 16.0934 0 0
10:53 pm 22:53 Clear 38 3.3 28 -2.2 68 68 S 5 7 30.15 1021 10 16.0934 0 0
11:53 pm 23:53 Clear 36 2.2 27 -2.8 70 70 S 7 11 30.14 1021 10 16.0934 0 0

Powered by AerisWeather